{"data":{"norad_id":62790,"epoch":"2026-09-22T21:14:41.161632Z","epoch_age_seconds":112046,"freshness":"FRESH","line1":"1 62790U 25016F   26265.88519863  .00000056  00000+0  68254-4 0  9996","line2":"2 62790  88.9653  73.5142 0014196 239.0902 120.8854 13.51028316 85598","mean_motion":13.51028316,"eccentricity":0.0014196,"inclination_deg":88.9653,"raan_deg":73.5142,"arg_perigee_deg":239.0902,"mean_anomaly_deg":120.8854,"bstar":6.8254e-5,"rev_number":8559,"period_min":106.58547884943,"perigee_km":1057.9063211151,"apogee_km":1079.0487491032,"semimajor_km":7446.6145351092,"source":"CELESTRAK","updated_at":"2026-09-23T09:00:21.634291Z"}}